Location: Newark
(44.8699°N, 13.8438°E)
Time: 01:49:27
(UTC+00:00)

Envisat - Pass Details

Date: 19 September 2019
Orbit: 764 x 766 km, 98.1° (Epoch: 15 October)

Event Time Altitude Azimuth Distance (km) Brightness Sun altitude
Rises 18:19:55 0° 204° (SSW) 3,220 6.3 -13.3°
Reaches altitude 10° 18:22:45 10° 220° (SW) 2,299 5.8 -13.8°
Maximum altitude 18:26:32 21° 268° (W) 1,681 5.7 -14.4°
Drops below altitude 10° 18:30:19 10° 317° (NW) 2,312 6.4 -15.0°
Sets 18:33:12 0° 333° (NNW) 3,243 7.0 -15.5°
